STARLINK-4658, 53612

Orbit data source: Space-Track

STARLINK-4658, 53612 is a payload satellite owned by SpaceX/Seattle (US) in LEO that was launched on Sun, 28 Aug 2022 UTC via an FALCON 9 launch vehicle from the Air Force Eastern Test Range (AFETR). Payload-class satellites include a variety of spacecraft equipped with specific instruments for various scientific and technological missions. These include communications satellites like Starlink; space stations such as the ISS; scientific satellites like the Hubble; Earth observation satellites from companies like Planet Labs, Umbra, and HawkEye 360; GPS; miniature CubeSats for education and research; and military/defense satellites.

Loading next visibility...
Identifier
53612, 2022-104AA
Orbit
LEO
Country
Flag of USUS
Related business
Manufacturer
SpaceX/Seattle
Mission
Operational Commercial Communications
Bus & Motor
STARLINK, Unknown motor
Mass
300 kg wet, ~290 kg dry
Launch date (UTC)
2022-08-28 (3 years ago)
Launch vehicle
FALCON 9
Launch site
Air Force Eastern Test Range (AFETR)
Object type
Payload
Rocket body
Debris
Shape & HBR
Box + 1 Pan, 10.1 m
Radar Cross Section
13.562 m², Large (>1 m²)

Expand to show TLE details & history
Last TLE update: 1 day ago

TLE from 1 day ago
0 STARLINK-4658
1 53612U 22104AA  25301.20740870  .00000622  00000-0  57145-4 0  9991
2 53612  53.2159 108.9289 0001290  91.6319 268.4820 15.08841379175630
Epoch: 2025-10-28T04:58Z
TLE epoch observation values (Epoch: 2025-10-28T04:58:40.111Z)
Latitude
-0.00011°
Longitude
-2.53652°
Altitude
540.66 km
Speed
7.593 km/s
True Right ascension
07h 15m 42s
True Declination
0° 00' 00"
Sunlit
Object was in daylight at epoch
Visualization orbit readout
Latitude
Unknown
Longitude
Unknown
Altitude
Unknown
Speed
Unknown
Apparent Right ascension
Unknown
Apparent Declination
Unknown
Sunlit
N/A
Visualization observer readout
Local Sidereal Time
03:33:03
Azimuth
Unknown
Elevation
Unknown
Doppler factor
Unknown
Orbital elements
Apogee altitude
540.877 km
Perigee altitude
539.092 km
Semi-major axis
6,918.121 km
Eccentricity
0.00013
Inclination
53.2159°
RAAN
108.9289°
Arg. of periapsis
91.6319°
True anomaly
268.46722°
Mean anomaly
268.482°
Eccentric anomaly
268.47461°
Mean motion
3.77191 °/min
Orbital period
95.44 mins
BSTAR
0.000057145
Loading maneuver chart data...
Computing Atmospheric mass density...
Loading historical data...
Loading historical data...
Loading historical data...
Loading historical data...
Loading historical data...
Loading historical data...
Loading historical data...

Documentation

Showing up to 5 results
|